Preview of NWS' New Version of Forecast
This preview is not operational and should not be used for support decisions.

Regional Weather Roundup (RWR)

Issued by National Weather Service (NWS)

                            
000
ASUS43 KTOP 190208
RWRKS 

WEATHER ROUNDUP FOR KANSAS
NATIONAL WEATHER SERVICE GOODLAND KS
800 PM CST MON FEB 18 2019

NOTE:  "FAIR" INDICATES FEW OR NO CLOUDS BELOW 12,000 FEET WITH NO
SIGNIFICANT WEATHER AND/OR OBSTRUCTIONS TO VISIBILITY.

KSZ001>006-013>018-027>032-041>047-190300-
NORTHWEST KANSAS
  
CITY           SKY/WX    TMP DP  RH WIND       PRES   REMARKS
GOODLAND       LGT SNOW  15  12  88 SE10      30.25R FOG     WCI   2  
HAYS             N/A     15  11  83 E7        30.42F                  
HILL CITY      CLOUDY    17  10  74 E9        30.41R                  
RUSSELL        CLOUDY    16  13  88 NE6       30.42S                  
$$

KSZ061>065-074>080-084>089-190300-
SOUTHWEST KANSAS
  
CITY           SKY/WX    TMP DP  RH WIND       PRES   REMARKS
DODGE CITY     CLOUDY    20  13  74 E6        30.34R                  
ELKHART        CLEAR     16  13  88 E8        30.23S                  
GARDEN CITY    CLOUDY    17  13  84 E9        30.32R                  
GREAT BEND     CLOUDY    19  13  77 NE9       30.42S                  
LIBERAL        CLOUDY    20  11  68 E9        30.30R                  
PRATT          CLOUDY    21  13  70 NE5       30.41R                  
$$

KSZ066>073-081>083-090>101-190300-
SOUTHEAST KANSAS
  
CITY           SKY/WX    TMP DP  RH WIND       PRES   REMARKS
CHANUTE        CLOUDY    28  17  63 NE9       30.48S                  
COFFEYVILLE    CLOUDY    30  20  66 NE12      30.46S WCI  20          
HUTCHINSON     CLOUDY    22  15  75 NE9       30.43S                  
MEDICINE LODGE   N/A     24  13  62 NE8       30.41R                  
NEWTON         CLOUDY    21  17  84 NE10      30.44S WCI  10          
PARSONS        CLOUDY    29  19  66 VRB7      30.47S                  
WICHITA INTL   CLOUDY    26  16  65 NE12      30.42S WCI  16          
WICHITA JABRA  CLOUDY    24  15  68 NE12      30.42S WCI  13          
WICHITA MCCONL CLOUDY    26  15  64 NE16      30.40F WCI  13          
WINFIELD       CLOUDY    29  15  56 E8        30.44R                  
$$

KSZ007>012-019>026-033>040-048>060-102>105-190300-
NORTHEAST KANSAS
  
CITY           SKY/WX    TMP DP  RH WIND       PRES   REMARKS
CONCORDIA      PTCLDY    16  11  80 E3        30.48R                  
EMPORIA        CLOUDY    23  17  78 NE7       30.48R                  
LAWRENCE       CLOUDY    22  15  75 N6        30.53S                  
MANHATTAN      CLOUDY    21  15  78 NE7       30.50F                  
MARYSVILLE     CLOUDY    18  14  86 NE3       30.50S                  
OLATHE IND     CLOUDY    20  15  81 N6        30.51S                  
OLATHE EXE     CLOUDY    22  15  75 NE8       30.50S                  
SALINA         CLOUDY    21  15  78 NE6       30.49S                  
TOPEKA BILLARD CLOUDY    20  13  74 N6        30.53S                  
TOPEKA FORBES  CLOUDY    21  14  74 N7        30.50S                  
$$